Location: ČR
(50.0000°N, 15.0000°E)
Time: 01:23:08
(UTC+00:00)

N. Korean satellite - Pass Details

Date: 28 September 2021
Orbit: 450 x 495 km, 97.3° (Epoch: 22 October)

Event Time Altitude Azimuth Distance (km) Brightness Sun altitude
Rises 03:40:00 0° 23° (NNE) 2,535 10.7 -12.9°
Reaches altitude 10° 03:42:18 10° 37° (NE) 1,660 10.0 -12.5°
Maximum altitude 03:45:20 25° 95° (E) 998 9.1 -12.0°
Drops below altitude 10° 03:48:22 10° 153° (SSE) 1,668 9.5 -11.6°
Sets 03:50:41 0° 166° (SSE) 2,550 10.3 -11.2°
